Showing default

GALILEO 10 (206), 40890

Orbit data source: Space-Track

GALILEO 10 (206), 40890 is a payload satellite owned by GNSS Agency (ESA) that was launched on Fri, 11 Sep 2015 UTC via a SOYUZ-ST-B launch vehicle from the French Guiana (FRGUI). Payloads include a variety of satellites, spacecraft, and rockets equipped with specific instruments for various scientific and technological missions. These include communications satellites like Starlink; space stations such as the ISS; scientific satellites like the Hubble; Earth observation satellites from companies like Planet Labs, Umbra, and HawkEye 360; GPS; miniature CubeSats for education and research; and military/defense satellites.

Loading next visibility...
GALILEO 10 (206) details
Identifier
40890, 2015-045B
Orbit
Active
Last TLE update2 days ago
Origin
Flag of ESAGNSS Agency (ESA)
ManufacturerOHB
MissionOperational Civil Navigation
Bus & MotorGALILEOSAT, AOCS
Mass733 kg wet, 660 kg dry
Launch date (UTC)
2015-09-11 (9 years ago)
Launch vehicle
SOYUZ-ST-B
Launch site
French Guiana (FRGUI)
Object type
Payload
Rocket body
Debris
Shape & HBRBox + 2 Pan, 14.71 m
Radar Cross Section9.223 m², Large (>1 m²)

Expand to show TLE details & history

TLE from 2 days ago
0 GALILEO 10 (206)
1 40890U 15045B   24336.92254347  .00000032  00000-0  00000+0 0  9994
2 40890  55.1430 237.1333 0003112   9.1861 350.9008  1.70473129 57455
Epoch: 2024-12-01T22:08Z
Definitive object data (Epoch: 2024-12-01T22:08:27.755Z)
Latitude0.00003°
Longitude-166.23798°
Altitude23,213.443 km
Speed3.671 km/s
True Right ascension15h 48m 31s
True Declination0° 00' 00"
Sunlit
Object was in daylight at TLE epoch
Visualization TLE readout
Latitude47.88199°
Longitude-116.0669°
Altitude23,223.093 km
Speed3.671 km/s
Apparent Right ascension19h 05m 58s
Apparent Declination35° 49' 16"
Sunlit
Object is in daylight
Visualization observer readout
Local Sidereal Time06:52:49
Azimuth357.252° N
Elevation-14.202°
Doppler factor1
Orbital elements
Apogee altitude23,231.499 km
Perigee altitude23,213.075 km
Semi-major axis29,600.424 km
Eccentricity0.0003112
Inclination55.143°
RAAN237.1333°
Arg. of periapsis9.1861°
True anomaly350.89516°
Mean anomaly350.9008°
Eccentric anomaly350.89798°
Mean motion0.42618 °/min
BSTARUnknown
Orbital period844.71 mins
Loading maneuver chart data...
Loading historical data...
Loading historical data...
Loading historical data...
Loading historical data...
Loading historical data...
Loading historical data...
Loading historical data...
Other satellites on launch #45 in the year 2015 (2015-09-11 UTC)

GALILEO 10 (206) Visibility forecast

Observer location: undefined°, undefined

Span
Click to sort rows by Start time (UTC) header in descending order
Start Az.
Max El. time (UTC)
Max El. Az.
Max El.
End time (UTC)
End Az.
526 mins2024-12-04 19:44:36.928Z221.806° SW2024-12-05 00:19:36.928Z11.903° NNE43.379°2024-12-05 04:30:36.928Z144.863° SSE
|